#timestamp,LO_Frequency,Hit,StdDev 
1588014015.8,286047000.4,N
1588014035.6,286047000.3,N
1588014055.5,286047002.4,N
1588014075.3,286047001.3,N
1588014095.1,286047001.8,N
1588014115.9,286047001.4,N
1588014135.7,286047004.1,N
1588014155.6,286047001.3,N
1588014175.4,286047003.6,N
1588014195.2,286047003.8,N
1588014215.1,286047003.1,N
1588014216.0,286047003.1,N
1588014235.8,286047004.4,N
1588014255.7,286047003.1,N
1588014275.5,286047005.5,Y
1588014295.3,286047005.9,P
1588014315.2,286047003.7,N
1588014335.0,286047001.4,N
1588014335.9,286047001.4,N
1588014355.7,286047002.3,N
1588014375.6,286047000.0,N
1588014395.4,286046998.2,N
1588014415.3,286047000.0,N
1588014435.1,286047002.7,N
1588014436.0,286047002.7,N
1588014455.8,286047000.3,N
1588014475.7,286047000.5,N
1588014495.5,286047002.2,N
1588014515.4,286047001.3,N
1588014535.2,286047001.7,N
1588014555.0,286047001.8,N
1588014555.9,286047001.8,N
1588014575.8,286047002.9,N
1588014595.6,286047003.0,N
1588014615.5,286047005.3,Y
1588014635.3,286046999.7,P
1588014655.1,286046999.8,N
1588014675.9,286047002.8,N
1588014695.7,286047002.1,N
1588014715.5,286047000.4,N
1588014735.4,286047000.0,N
1588014755.2,286046998.7,N
1588014775.1,286046999.9,N
1588014776.0,286046999.9,N
1588014795.8,286047000.4,N
1588014815.6,286046998.3,N
1588014835.5,286046998.3,N
1588014855.3,286046999.3,N
1588014875.2,286046998.5,N
1588014895.9,286046998.2,N
1588014915.7,286046998.3,N
1588014935.6,286046997.4,N
1588014955.4,286046998.6,N
1588014975.2,286047000.9,N
1588014995.1,286046998.6,N
1588014996.0,286046998.6,N
1588015015.8,286047001.1,N
1588015035.7,286046998.5,N
1588015055.5,286047000.3,N
1588015075.3,286047000.6,N
1588015095.2,286046999.5,N
1588015115.0,286047001.0,N
1588015115.9,286047001.0,N
1588015135.8,286047000.4,N
1588015155.6,286046998.2,N
1588015175.4,286046999.7,N
1588015195.3,286046999.6,N
1588015215.1,286046998.8,N
1588015235.8,286046998.7,N
1588015255.7,286047001.2,N
1588015275.5,286046999.2,N
1588015295.4,286046998.8,N
1588015315.2,286047002.4,N
1588015335.0,286047001.0,N
1588015335.9,286047001.0,N
1588015355.8,286047000.6,N
1588015375.6,286047000.4,N
1588015395.5,286046998.2,N
1588015415.3,286046999.6,N
1588015435.1,286046996.7,N
1588015455.9,286046995.3,Y
1588015475.7,286046999.6,P
1588015495.5,286046999.2,P
1588015515.4,286046998.7,P
1588015535.2,286047000.2,N
1588015555.1,286047000.8,N
1588015556.0,286047000.8,N
1588015575.8,286046998.2,N
1588015595.6,286046998.3,N
1588015615.5,286046998.9,N
1588015635.3,286046998.6,N
1588015655.2,286046998.1,N
1588015675.9,286046998.1,N
1588015695.7,286046998.3,N
1588015715.6,286046999.0,N
1588015735.4,286046998.7,N
1588015755.2,286047000.5,N
1588015775.1,286047000.4,N
1588015776.0,286047000.4,N
1588015795.8,286047002.1,N
1588015815.7,286047000.9,N
1588015835.5,286047001.2,N
1588015855.3,286046998.7,N
1588015875.2,286047000.6,N
1588015895.0,286047000.6,N
1588015895.9,286047000.6,N
1588015915.8,286047001.7,N
1588015935.6,286046999.9,N
1588015955.4,286047002.5,N
1588015975.3,286047004.2,Y
1588015995.1,286047003.4,P
1588016015.9,286047004.0,N
1588016035.7,286047004.1,N
1588016055.5,286047000.0,N
1588016075.4,286046998.9,N
1588016095.2,286046998.6,N
1588016115.0,286046999.2,N
1588016115.9,286046999.2,N
1588016135.8,286047001.0,N
1588016155.6,286046998.3,N
1588016175.5,286046999.5,N
1588016195.3,286046998.5,N
1588016215.1,286046999.6,N
1588016235.9,286046998.1,N
1588016255.7,286047000.3,N
1588016275.6,286047002.8,N
1588016295.4,286047002.7,N
1588016315.2,286047004.4,N
1588016335.1,286047002.1,N
1588016336.0,286047002.1,N
1588016355.8,286047000.0,N
1588016375.7,286046998.1,N
1588016395.5,286046998.4,N
1588016415.3,286046998.7,N
1588016435.2,286047000.7,N
1588016455.0,286047000.2,N
1588016455.9,286047000.2,N
1588016475.7,286047001.1,N
1588016495.6,286046998.5,N
1588016515.4,286046998.3,N
1588016535.3,286046998.5,N
1588016555.1,286046999.6,N
1588016575.8,286046997.2,N
1588016595.7,286046995.4,N
1588016615.5,286046997.9,N
1588016635.4,286046997.7,N
1588016655.2,286046999.6,N
1588016675.0,286046997.8,N
1588016675.9,286046997.8,N
1588016695.8,286046995.1,N
1588016715.6,286046995.9,N
1588016735.5,286046993.3,Y
1588016755.3,286046994.1,P
1588016775.1,286046996.3,N
1588016795.9,286046993.5,P
1588016815.7,286046994.2,N
1588016835.5,286046993.9,N
1588016855.4,286046994.8,N
1588016875.2,286046992.4,Y
1588016895.1,286046999.2,P
1588016896.0,286046999.2,N
1588016915.8,286046998.2,N
1588016935.6,286046996.5,N
1588016955.5,286046998.9,N
1588016975.3,286046999.2,N
1588016995.2,286046997.9,N
1588017015.9,286046997.6,N
1588017035.7,286046996.5,N
1588017055.6,286046996.7,N
1588017075.4,286046997.3,N
1588017095.3,286046997.4,N
1588017115.1,286046995.0,Y
1588017116.0,286046995.0,P
1588017135.8,286046998.6,N
1588017155.7,286046996.7,N
1588017175.5,286046999.6,N
1588017195.3,286046997.2,N
1588017215.2,286046997.4,N
1588017235.0,286046997.7,N
1588017235.9,286046997.7,N
1588017255.8,286046996.8,N
1588017275.6,286046997.3,N
1588017295.5,286046995.0,Y
1588017315.3,286046998.3,P
1588017335.1,286046998.2,P
1588017355.9,286046998.9,N
1588017375.7,286046996.9,Y
1588017395.6,286046998.6,P
1588017415.4,286047002.8,P
1588017435.2,286047001.2,N
1588017455.1,286047001.1,N
1588017456.0,286047001.1,N
1588017475.8,286047001.2,N
1588017495.6,286047000.4,N
1588017515.5,286046998.1,N
1588017535.3,286047000.5,N
1588017555.2,286047000.3,N
1588017575.9,286046999.9,N
1588017595.7,286047002.4,N
